Погода в Житомире

Погода в Житомире : погода сейчас, прогноз погоды и архив. Всё, что Вы хотите узнать о погоде в Житомире!

Хотите узнать прогноз погоды в Житомире? Тогда Вам сюда: Погода в Житомире

Поиск расширенной информации на нашем сайте:

Другие новости

Новости СМИ2

Главная страница сайта

Новости сайта

02.10.2013

Напоминаем, что на нашем новом сайте вы можете получить высокодетализированные прогнозы погоды по пунктам России, СНГ и мира (включающие важные для авиации метеовеличины, такие как направление и скорость ветра, видимость, явления погоды, количество и форма облачности, нижняя и верхняя граница облачности), а также ознакомиться с разнообразными материалами по авиационной метеорологии и подборкой полезных ссылок на эту тему.

Сайт Метеоцентр.Азия посвящён разработке технологий оптимизации авиаметеорологического обслуживания, включая проектирование и перспективное создание нескольких автоматизированных авиаметеорологических систем:
- система выпуска высокодетальных прогностических карт явлений погоды для нижнего воздушного пространства по России и ближнему зарубежью;
- система верификации прогнозов TAF (выпускаемых синоптиками официальных АМСГ РФ и ближнего зарубежья) и AUTOTAF (выпускаемых сайтом Метеоцентр.Азия) - выявление ошибок, онлайн-сопоставление с фактической погодой METAR, автоматическое внесение коррективов в прогнозы при резком отклонении фактической погоды от прогноза, подсчёт оправдываемости прогнозов по элементам и в целом;
- система обработки, анализа и отображения авиаметеорологической информации для применения провайдерами метеорологической информации.

Рекомендуем: курсы повышения квалификации радиационная безопасность в Москве

Погода в Житомире - сегодня

Время (UTC), дата Ветер
(°,м/с) 
Видим.   Явления Облачность Т
(°С)
Тd
(°С)
f(%) Тe
(°С)
Pmin
(гПа)
dP
(гПа)
Po
(мм)
O2
(г/м3)
Тmin Tmax R s Состояние
почвы
09 18.02.17 320 (СЗ) 2000 м  слаб. ливневой дождь со снегом  10/10 180 м кучево-дожд. 
[Cb cap]
+1.3 +0.2 92 +2  1019.2  0.7  744  298           
12 18.02.17 320 (СЗ) 0500 м  туман{ливн. осадки}  ?/?  
+1.6 +1.6 100 +1  1019.7  0.5  744  298         
15 18.02.17 310 (СЗ) 10 км  {туман}  10/10 330 м 
[St]
+2.5 +0.6 87 +3  1020.8  1.2  745  297           
18 18.02.17 310 (СЗ) 10 км  {туман}  10/10 800 м 
[Sc]
+1.9 -0.3 85 +3  1022.5  1.6  746  299    +2.5     
21 18.02.17 280 (З) 10 км    9/9 900 м 
[Sc]
+1.3 -0.9 85 +2  1023.7  1.1  747  300           
00 19.02.17 280 (З) 4000 м  дымка  10/10 360 м 
[St]
+1.4 +0.3 92 +2  1024.4  0.7  748  300           
03 19.02.17 260 (З) 1000 м  дымка  10/10 240 м 
[St]
+0.7 +0.2 96 +1  1025.3  0.8  748  301           
06 19.02.17 260 (З) 1000 м  в посл. час туман  10/10 150 м 
[St]
+0.8 +0.3 96 +1  1025.9  0.6  749  301  +0      23  равномерный
мокрый или
старый снег
100% 
09 19.02.17 260 (З) 10 км    4/0 средняя 
[Ac trans]
+4.5 +0 73 +5  1025.5  -0.1  749  297           
12 19.02.17 230 (ЮЗ) 10 км    8/5 660 м средняя 
[Sc|Ac trans]
+4.3 -1.1 68 +4  1024.9  -0.6  748  297           
15 19.02.17 250 (З) 10 км    10/10 500 м 
[Sc]
+1.8 -1.6 78 +1  1024.3  -0.8  748  299           
18 19.02.17 290 (З) 10 км    10/10 570 м 
[Sc]
+1.4 -1.8 79 +2  1023.6  -0.7  747  300    +5.5       
21 19.02.17 230 (ЮЗ) 10 км    ясно 
-0.5 -2.3 88 1023.3  -0.5  747  302           
00 20.02.17 270 (З) 4000 м  дымка  3/0 средняя 
[Ac trans]
-1.7 -2.6 94 -1  1022.8  -0.6  746  303           
03 20.02.17 тихо ()   4000 м  дымка  ясно 
-2.7 -3.7 93 -3  1021.8  -1.1  746  304           
06 20.02.17 270 (З) 10 км    ясно 
-3.1 -4.5 90 -3  1021  -0.8  745  304  -3.7         
09 20.02.17 240 (ЮЗ) 10 км    ясно 
+1.4 -2.4 76 +1  1019.8  -0.7  744  299           
12 20.02.17 220 (ЮЗ) 10 км    ясно 
+1.4 -3 72 1018.1  -1.7  743  298           
15 20.02.17 210 (ЮЗ) 10 км    ясно 
+1 -2.2 79 1015.3  -2.7  741  298           
18 20.02.17 220 (ЮЗ) 4000 м  дымка  ясно 
-1.3 -2.5 92 -2  1014.7  -0.9  740  300    +3.4       
21 20.02.17 230 (ЮЗ) 4000 м  дымка  ясно 
-2.1 -3.4 91 -2  1012.4  -2.3  739  300           
00 21.02.17 210 (ЮЗ) 10 км    ясно 
-1.9 -4.1 85 -4  1009.4  -2.9  737  299           
03 21.02.17 230 (ЮЗ) 10 км    10/0 верхняя 
[Cs]
-1.1 -3.6 83 -2  1006.1  -3.1  734  297           
06 21.02.17 250 (З) 10 км  слаб. снег  10/0 средняя 
[As op]
+1.2 -1.3 83 -1  1003.1  -2.7  732  294  -2.2    0.0  20  равномерный
сухой снег
100% 
09 21.02.17 260 (З) 10 км  в посл. час снег  10/8 400 м средняя 
[St|Ac As]
+1.2 +0.1 92 -1  1001.6  -1.4  731  293           
Время (UTC), дата Ветер
(°,м/с) 
Видим.   Явления Облачность Т
(°С)
Тd
(°С)
f(%) Тe
(°С)
Pmin
(гПа)
dP
(гПа)
Po
(мм)
O2
(г/м3)
Тmin Tmax R s Состояние
почвы

Для получения пояснительной информации подведите курсор к названию столбца.

ПОГОДА в Житомире - архив

Всё, что Вы хотите узнать о погоде в Житомире - удобно и подробно!

Выберите нужную дату (начиная с 1 января 2015* года) и нажмите кнопку "Найти".
Будут отображены архивные сводки погоды по пункту Житомир, начиная с указанной даты.


Отображать данные в формате CSV (для использования в таблицах Excel)


Внимание! Наш архив погоды предназначен исключительно для личного некоммерческого использования в познавательных целях. Если Вам необходимы официальные справки о состоянии погоды (для производственных, юридических, коммерческих и т.п. целей), обращайтесь в органы Росгидромета.

*Примечание: данная дата относится к архиву по метеостанциям СССР (Россия, СНГ, Балтия).
Архив по метеостанциям Зарубежной Европы и Азии (кроме Китая) хранится 10 дней, по другим регионам земного шара (Китай, Африка, Америка, Австралия, Океания) - 1 день.

Житомир - район местоположения метеостанции


Название, широта, долгота, высота метеостанции:
Житомир 50.2°ш. 28.7°д. 224 м над ур. моря [Украина]

Дополнительная информация

В oтличие oт бoльшинства пoгoдных сайтoв мы публикуем пoдрoбную метеoинфoрмацию в детальнoм прoфессиoнальнoм фoрмате.

Характеристики температуры и влажнoсти вoздуха измеряются на высoте 2 м в тени вдали oт зданий и деревьев.
Скoрoсть ветра измеряется на высoте 10 м (на урoвне рoста челoвека скoрoсть ветра ниже в 1.5-2 раза). Если метеoстанция нахoдится в гoрoде или в лесу, тo скoрoсть ветра занижена на 2-4 м/с пo сравнению с oткрытым местoм. Скoрoсть ветра над акватoриями крупных рек и oзёр, а также на вершинах хoлмoв на 2-5 м/с выше, чем в oбычных услoвиях.
Атмoсфернoе давление в разных тoчках местнoсти мoжет значительнo oтличаться oт давления на метеoстанции, в зависимoсти oт услoвий рельефа (при пoдъёме на 10 м давление пoнижается примернo на 1 мм рт.ст.).